Location: ??
(35.5653°N, 139.6194°E)
Time: 10:04:33
(UTC+00:00)

Centaur D AC-28 - Pass Details

Date: 20 November 2019
Orbit: 603 x 36452 km, 28.6° (Epoch: 14 December)

Event Time Altitude Azimuth Distance (km) Brightness Sun altitude
Exits shadow 18:35:52 44° 163° (SSE) 1,412 3.3 -33.6°
Drops below altitude 10° 18:46:38 10° 106° (ESE) 5,999 7.4 -31.4°
Sets 18:57:13 0° 102° (ESE) 10,244 8.9 -29.3°
